Location: Bouchavesnes-Bergen
(49.9859°N, 2.9203°E)
Time: 22:35:33
(UTC+00:00)

ISS - Pass Details

Date: 04 December 2023
Orbit: 414 x 422 km, 51.6° (Epoch: 27 February)

Event Time Altitude Azimuth Distance (km) Brightness Sun altitude
Rises 17:49:03 0° 284° (WNW) 2,418 1.2 -18.5°
Reaches altitude 10° 17:51:39 10° 263° (W) 1,552 0.4 -18.9°
Maximum altitude 17:54:01 17° 221° (SW) 1,181 -0.8 -19.3°
Drops below altitude 10° 17:56:23 10° 178° (S) 1,554 -0.8 -19.7°
Enters shadow 17:58:04 - 163° (SSE) 2,086 -0.3 -19.9°
